Theta_e
309 310 309 309 309 308 308 308 308 307 307 305 302 301 301 301 301 302 302 302 303 303 304 306 310 309 316 320 319 329 317 328 321 325 326 335 340 344 345 342 344 346 348 348 348 346 344
310 309 309 309 308 308 307 307 307 306 303 301 301 301 301 301 301 301 302 302 302 307 309 314 315 313 318 322 319 319 324 325 326 329 326 332 337 340 343 341 343 344 346 347 345 344 342
308 309 308 308 308 307 306 306 305 302 301 301 301 300 300 301 300 301 301 302 305 315 316 317 318 315 320 324 319 316 320 325 330 330 328 331 332 339 340 340 339 342 344 346 347 340 340
308 308 308 308 307 306 305 304 302 301 301 301 301 301 301 300 300 301 302 303 314 319 318 314 317 317 324 323 322 317 322 326 330 332 331 330 331 335 339 337 339 341 342 347 342 339 339
308 308 307 307 307 303 302 302 302 301 301 301 301 301 301 300 300 301 302 306 317 318 316 315 319 321 327 318 319 321 319 328 332 334 334 332 332 336 337 338 336 335 339 341 342 340 339
307 307 307 307 306 303 302 302 303 302 302 301 301 301 301 300 301 302 304 309 314 318 320 321 322 323 323 323 322 319 319 326 334 336 336 334 335 336 338 339 340 336 336 337 339 340 339
307 306 307 306 306 304 303 303 302 302 302 302 301 301 300 300 302 306 309 314 318 325 324 327 327 325 326 324 321 319 319 327 333 336 336 335 336 340 333 338 337 335 335 336 338 339 339
307 306 306 306 305 303 302 302 302 302 302 302 302 300 300 301 303 308 310 313 311 310 313 313 314 316 322 324 325 320 322 327 330 338 333 331 334 332 331 329 332 334 336 336 336 336 338
305 304 305 304 303 303 303 303 303 303 302 302 302 301 300 301 305 309 311 310 309 310 313 313 316 316 317 324 326 326 321 324 329 336 333 329 327 327 326 325 327 330 332 334 335 336 336
304 304 305 304 304 304 304 304 304 303 303 302 302 301 301 301 307 308 311 308 309 310 315 316 319 319 318 321 326 326 319 323 328 334 335 329 327 326 326 325 326 326 327 330 332 334 338
305 305 306 305 305 304 304 305 304 303 303 302 302 301 301 305 309 311 308 307 308 311 317 321 320 319 320 320 325 325 321 322 326 327 331 331 327 327 327 326 326 327 327 327 329 332 335
306 306 306 304 304 304 303 303 303 302 301 301 302 302 304 307 308 307 306 306 310 316 318 321 319 320 321 320 323 326 325 321 325 326 327 328 327 327 327 327 326 327 326 326 327 328 333
305 306 305 305 303 303 303 303 302 301 301 301 301 303 305 306 308 306 306 309 312 313 318 323 321 322 321 323 323 326 326 321 324 326 326 327 328 327 327 328 327 327 327 327 326 328 330
306 305 305 304 303 303 303 303 302 302 301 301 303 306 307 307 305 306 307 310 310 312 318 317 317 319 321 323 324 326 327 328 322 323 325 328 329 328 327 328 328 328 327 327 329 327 327
305 304 304 303 303 303 304 303 302 302 302 303 306 308 308 305 305 306 310 309 309 313 313 313 316 321 321 323 324 326 326 327 325 323 326 329 330 329 328 327 329 329 330 327 328 329 329
304 303 303 303 303 303 304 304 303 302 302 304 307 308 308 305 307 308 310 309 310 309 309 310 314 319 324 325 324 325 326 326 327 325 328 330 332 330 328 328 328 330 328 328 328 331 332
302 302 303 303 304 303 303 304 303 303 302 305 309 309 307 305 307 309 307 308 307 307 308 309 310 313 316 319 322 326 326 325 325 327 328 329 332 332 330 328 329 328 330 329 328 328 331
301 302 303 303 304 304 304 303 303 304 302 306 309 310 307 306 308 307 306 306 305 307 308 308 311 312 313 316 319 323 326 325 319 324 328 329 330 333 331 328 328 329 329 330 330 333 329
301 301 302 303 304 304 304 304 303 303 302 305 310 310 307 306 307 308 307 306 307 308 307 308 309 311 314 315 318 321 323 321 319 324 328 330 331 334 335 331 329 329 328 330 330 330 333
300 301 302 302 303 303 304 304 304 303 302 305 310 310 308 308 307 307 307 307 307 306 306 307 310 310 311 313 314 318 321 320 318 319 321 324 331 333 336 335 330 330 329 328 330 332 331
300 301 301 301 301 302 303 304 304 304 303 306 309 309 308 308 308 307 307 306 308 306 306 307 311 310 310 313 315 317 319 319 319 320 322 325 332 332 332 333 332 330 329 329 330 331 331
300 300 301 301 301 301 302 303 304 304 304 307 309 308 307 308 306 307 308 307 306 306 306 306 307 308 307 311 312 313 316 316 319 319 321 323 328 331 333 331 331 331 331 330 329 330 330
300 300 300 300 300 301 301 302 304 304 305 305 307 307 308 308 307 307 307 307 305 305 307 307 306 306 307 308 309 310 311 312 313 315 318 321 325 331 333 331 331 332 331 331 331 330 331
300 300 300 300 300 301 301 303 305 305 305 304 303 304 308 310 308 307 306 306 306 306 306 306 306 307 308 308 308 310 310 311 312 313 315 318 323 327 330 332 335 331 330 329 330 330 330
300 300 300 300 300 301 301 304 305 305 305 306 304 304 306 310 308 308 307 306 306 306 307 307 306 307 307 308 309 312 312 312 312 311 313 315 318 324 328 331 330 329 329 330 329 330 329
300 300 300 301 302 303 305 306 306 306 306 307 306 303 304 307 309 308 309 307 307 308 309 308 307 307 307 309 309 313 313 314 314 313 312 314 316 319 324 329 333 329 327 326 328 331 329
302 303 303 303 303 304 305 307 306 306 307 307 307 305 304 306 306 308 309 309 308 308 308 307 307 307 308 310 312 311 310 313 313 315 314 314 316 318 320 324 326 327 329 328 331 347 342
303 302 302 302 303 305 308 306 307 306 307 307 308 307 305 305 305 307 308 308 309 307 309 308 309 309 308 311 312 311 309 313 314 312 315 315 316 318 319 321 324 322 323 330 332 331 334
302 302 302 303 305 306 307 306 307 307 307 307 308 307 306 305 306 307 307 307 307 307 307 308 308 308 309 311 314 314 311 311 312 313 312 315 316 316 317 319 320 320 321 321 322 324 327
Wind_Speed
19 20 21 22 23 24 25 25 26 27 28 29 31 33 35 36 37 37 41 38 30 31 29 24 17 11 5 10 17 5 4 14 24 32 32 25 25 24 23 20 16 19 19 10 6 7 6
18 20 20 22 23 24 25 26 26 28 30 31 33 35 37 38 40 40 44 33 34 30 21 14 11 8 10 19 12 17 8 15 23 34 32 27 22 24 22 21 20 14 17 14 10 11 12
20 21 21 22 23 24 26 27 28 29 31 32 34 36 37 40 41 42 42 33 31 18 16 11 11 14 15 20 7 9 18 20 23 32 25 29 26 19 24 15 18 19 10 16 16 14 9
20 20 21 23 24 25 26 27 29 31 32 34 36 37 38 40 41 44 33 31 18 15 17 7 14 13 10 6 24 13 17 22 23 28 26 25 27 21 24 18 12 19 19 18 19 19 15
20 21 22 23 24 26 28 29 30 32 33 35 36 38 40 41 41 45 26 24 9 12 6 12 11 14 11 4 17 28 21 25 26 25 21 20 22 18 21 20 15 20 18 24 21 22 18
19 20 21 23 24 27 29 30 31 33 35 37 38 39 40 41 42 31 30 18 10 5 2 6 9 7 10 12 17 24 28 25 23 20 18 18 15 18 20 20 21 22 24 21 23 18 14
19 20 21 23 24 26 28 29 30 32 34 35 37 40 41 41 36 25 28 17 4 7 15 15 8 16 4 13 5 20 30 25 21 22 21 24 20 27 29 27 22 22 21 24 18 23 22
19 20 22 23 25 27 29 30 32 33 35 37 39 41 42 38 22 20 21 11 9 10 16 22 30 29 31 7 11 16 32 23 25 27 26 19 28 26 24 26 27 26 26 24 22 13 11
20 21 22 23 25 27 29 31 33 33 34 35 38 40 41 37 13 15 8 14 16 17 9 19 27 27 25 25 17 24 31 30 30 31 32 28 19 27 26 25 27 28 28 24 20 18 19
20 20 21 23 25 28 29 30 31 32 33 35 36 39 36 32 7 19 8 20 18 12 7 9 10 9 26 21 20 25 35 32 20 34 32 30 26 26 27 27 26 27 26 23 18 19 17
19 20 21 24 25 26 27 30 33 35 36 38 39 38 28 9 15 11 18 22 17 8 7 13 11 7 13 25 11 30 37 33 26 26 29 32 28 23 27 26 26 24 20 24 23 20 19
19 20 21 23 24 25 28 31 34 36 37 37 37 31 18 10 15 15 23 21 9 7 10 7 7 10 15 24 24 24 29 33 30 27 28 30 21 24 22 24 22 21 16 19 22 19 20
19 20 21 22 25 27 29 31 33 35 37 38 37 19 10 11 13 22 21 12 9 11 3 11 10 6 16 19 25 19 33 33 30 29 29 28 32 24 21 22 24 18 19 13 16 18 17
19 19 21 22 24 26 28 30 33 34 36 39 33 15 8 9 20 19 18 11 15 18 15 22 19 23 19 20 22 24 28 27 36 32 19 22 25 34 22 27 25 27 25 16 21 18 17
18 20 22 23 24 26 27 29 32 35 37 34 29 12 4 18 18 15 10 11 15 12 18 19 26 21 18 23 15 25 28 28 32 33 31 25 31 30 25 24 27 23 26 28 22 22 15
18 19 21 23 24 26 27 29 31 35 37 29 24 20 4 20 15 13 10 15 19 14 19 16 21 18 22 11 14 19 28 24 28 36 30 28 20 28 32 25 28 25 25 22 16 20 19
18 20 20 21 23 24 26 27 30 33 38 28 15 7 13 20 18 9 7 9 10 18 13 14 21 22 18 21 27 17 17 6 6 13 34 33 22 16 25 28 27 26 22 25 20 18 13
19 20 20 20 21 23 24 26 29 31 35 25 11 7 16 20 11 5 8 9 9 14 14 15 20 21 17 11 17 17 17 10 12 13 18 35 13 21 31 28 27 26 29 27 17 24 17
20 21 22 22 21 22 23 25 27 28 29 22 9 9 2 15 7 10 13 15 10 12 11 11 10 18 20 18 9 16 15 9 11 14 6 9 17 16 22 25 28 31 30 24 26 18 21
20 21 22 22 22 22 23 23 24 25 25 17 6 5 7 8 6 9 11 16 14 5 7 13 8 11 19 19 17 11 11 13 8 10 15 9 17 23 19 25 24 29 29 30 24 19 17
20 21 22 23 23 23 23 23 22 23 23 14 4 6 6 7 10 13 14 13 13 8 9 14 3 7 9 8 17 10 10 16 8 6 10 7 15 20 26 18 20 28 29 30 30 24 24
21 22 23 24 24 24 24 23 22 20 21 10 5 5 6 10 9 13 15 9 13 13 17 15 9 15 9 11 13 15 14 11 6 15 11 10 12 19 24 24 5 14 26 32 30 27 24
22 24 25 26 26 25 25 24 22 19 14 4 8 11 5 9 10 10 10 14 12 10 12 9 15 13 15 8 14 17 13 18 16 15 13 11 9 12 17 22 11 16 20 20 24 27 22
25 25 26 27 28 27 27 26 22 18 14 8 8 5 4 9 10 11 14 15 14 13 15 18 16 15 15 13 16 19 18 18 16 15 13 12 12 9 12 18 20 14 19 14 14 14 16
26 26 27 28 30 29 28 26 23 20 17 18 11 5 3 7 10 16 9 12 14 13 15 16 12 9 13 15 14 11 12 14 17 14 15 13 11 7 10 16 7 17 14 21 22 20 14
26 28 30 30 31 30 28 25 25 22 20 19 19 14 4 4 7 10 16 13 10 12 14 10 8 9 8 8 9 12 6 5 14 13 14 15 12 11 8 13 18 4 10 2 3 12 20
30 30 31 31 31 29 28 26 25 23 21 20 14 17 8 4 10 17 8 10 9 11 8 11 11 12 8 5 8 10 9 8 6 15 15 12 13 14 13 8 10 5 12 11 12 6 15
31 32 33 33 32 30 29 26 25 24 21 19 13 22 17 4 10 22 22 16 11 9 9 8 8 4 5 3 5 3 7 2 9 12 8 12 15 13 14 16 17 4 7 5 8 10 13
32 33 33 33 30 31 29 26 24 23 20 18 9 16 28 6 6 20 24 30 27 20 9 5 10 13 4 4 3 5 9 4 9 9 9 9 9 10 13 15 3 10 13 6 5 8 8
Wind_Direction
25 18 18 16 13 11 9 7 4 1 358 356 354 353 351 349 347 344 341 334 326 320 309 300 286 276 274 223 249 264 267 186 190 194 207 198 206 204 217 225 224 231 263 207 264 242 234
22 19 18 14 10 8 7 5 3 1 360 357 356 353 351 347 345 343 340 332 325 319 310 295 266 221 229 247 256 226 184 169 185 193 206 202 209 209 225 235 219 225 239 256 235 230 221
23 19 14 10 8 8 7 5 3 3 1 359 356 353 350 346 343 340 338 333 327 320 311 279 238 197 234 237 219 218 204 196 193 196 205 206 212 211 228 243 242 242 249 226 244 240 225
20 16 12 10 7 7 7 4 3 2 1 358 356 353 349 345 342 338 335 334 327 326 319 270 192 196 251 247 237 224 206 202 199 204 216 206 214 224 227 244 222 228 241 239 220 218 220
18 14 11 8 5 6 6 5 2 2 0 357 354 353 348 345 342 337 332 330 323 347 333 143 153 221 256 179 217 214 208 201 194 203 214 211 213 222 220 237 224 226 225 222 228 209 218
16 13 9 6 4 4 4 3 1 360 358 355 352 351 348 344 342 343 336 322 271 286 154 219 267 208 246 226 210 208 204 205 196 194 201 214 211 211 225 213 221 217 218 227 218 199 209
14 9 6 3 2 1 1 1 360 360 358 355 352 350 347 343 343 350 337 322 259 205 235 253 197 245 328 213 188 196 193 194 201 196 200 201 202 213 211 218 225 239 224 227 227 213 194
9 6 4 4 3 2 1 0 359 358 357 354 351 348 344 343 342 356 352 26 30 310 293 269 258 258 255 254 212 196 183 192 196 199 200 186 220 214 220 216 225 230 241 230 226 215 226
6 8 6 4 4 3 1 359 357 355 354 353 350 347 340 338 330 345 13 14 333 323 269 284 239 233 221 225 223 195 192 199 195 200 199 209 211 216 212 219 214 226 229 235 233 215 221
3 6 3 4 4 2 359 357 356 354 352 352 350 347 340 334 304 336 19 338 331 322 278 253 201 221 211 197 232 236 193 199 193 206 205 220 225 196 216 217 216 220 222 238 238 240 219
0 1 1 2 3 2 360 358 356 353 350 348 346 346 340 337 312 338 335 325 322 271 276 120 131 115 191 191 162 201 186 205 209 207 207 211 218 204 209 213 216 228 218 218 234 241 246
358 1 1 2 360 1 1 359 356 352 350 346 342 342 338 351 291 341 325 318 281 233 241 170 127 192 185 204 241 172 193 208 218 211 211 228 208 223 212 216 216 220 227 227 217 232 237
357 1 360 358 360 1 0 359 355 352 348 342 337 340 317 312 330 325 322 295 242 240 259 26 351 301 216 198 221 184 188 194 205 213 216 213 228 212 226 210 207 206 208 206 217 218 226
355 358 358 360 359 359 358 355 353 350 348 342 338 327 296 305 328 322 306 273 252 274 10 353 326 312 290 265 201 208 193 200 210 208 210 210 215 222 200 211 200 201 209 213 209 217 225
353 357 359 359 357 356 355 352 351 349 348 346 342 326 295 342 329 318 286 269 255 311 353 337 320 278 247 232 246 212 208 211 204 217 217 203 222 196 209 208 211 195 214 217 236 213 232
356 358 359 358 356 355 352 351 349 348 347 347 325 302 15 344 326 290 265 272 359 356 332 328 301 312 330 326 207 244 212 223 217 210 231 242 211 217 199 207 214 227 205 216 235 252 223
353 354 356 355 357 355 352 349 348 349 346 346 302 304 24 337 296 278 328 349 329 318 331 322 309 302 320 325 317 274 241 94 297 240 211 237 246 234 204 203 200 208 214 213 227 232 239
349 348 348 351 352 351 350 348 350 352 350 351 310 320 4 329 299 354 353 336 301 327 357 339 316 288 282 308 300 301 298 51 353 306 268 218 235 237 202 198 213 212 213 201 221 217 238
346 346 346 347 348 348 346 348 348 353 355 339 322 303 117 326 357 345 342 322 312 343 346 332 327 340 308 292 298 329 329 8 346 306 354 198 226 221 228 193 201 219 205 216 213 234 213
340 341 341 339 342 342 344 344 347 347 350 340 307 309 351 308 357 329 345 304 323 347 342 323 351 350 341 305 270 273 321 323 329 344 334 307 244 226 217 198 187 209 209 213 216 217 224
335 335 333 333 334 337 338 337 339 341 345 329 287 344 22 308 340 332 294 293 313 335 340 315 104 334 336 305 316 5 316 315 292 34 309 252 237 238 250 246 207 198 214 213 214 218 222
329 328 326 325 326 330 332 331 332 332 340 293 311 338 323 295 304 294 296 296 329 339 318 307 331 331 293 292 288 300 306 322 337 336 332 301 257 249 248 249 215 264 209 216 212 220 223
323 324 323 321 322 326 327 326 325 326 331 321 325 312 304 286 287 295 308 319 316 325 301 309 325 313 299 317 299 299 273 281 286 293 304 307 271 233 233 236 214 239 238 227 220 212 219
321 322 320 319 319 322 322 320 319 316 301 258 272 301 274 278 298 305 301 298 311 303 287 293 283 282 297 309 301 267 255 255 257 258 265 276 298 279 226 233 222 229 206 235 242 239 227
322 322 319 319 318 319 317 316 314 310 299 267 259 238 262 271 295 299 315 312 310 286 278 281 306 309 287 280 273 287 232 234 232 233 238 246 266 264 249 220 198 221 221 200 213 226 226
323 320 317 317 317 317 314 312 309 307 300 275 248 255 220 281 260 316 306 301 291 299 296 279 301 294 300 308 269 256 283 288 197 202 211 226 220 263 255 252 204 142 109 94 208 228 217
319 318 316 317 319 314 310 309 310 307 302 288 243 225 225 252 265 269 282 308 308 301 288 299 317 298 240 267 275 258 267 333 280 187 174 202 219 222 237 256 249 75 54 146 185 61 17
320 319 318 320 320 312 307 311 311 306 302 294 272 231 205 232 272 271 277 273 283 269 271 302 311 276 273 274 282 306 273 360 296 272 187 208 202 218 227 232 237 27 132 197 49 15 358
321 320 319 319 314 310 310 313 310 306 302 300 263 235 226 215 260 294 287 277 265 258 261 272 276 317 305 338 338 320 301 241 281 280 224 241 259 229 220 223 261 307 319 13 13 321 330